Météo par heure à Ababuj

Ce jour, 30 Novembre, Lundi

Heure Température Précipitation Vent Pression Humidité
00:00 +2°C° 0 mm 0 m/s 646 mmHg 89%
01:00 +2°C° 0 mm 0 m/s 646 mmHg 89%
02:00 +2°C° 0 mm 0 m/s 646 mmHg 89%
03:00 +2°C° 0 mm 0 m/s 646 mmHg 89%
04:00 +2°C° 0 mm 0 m/s 646 mmHg 89%
05:00 +1°C° 0 mm 0 m/s 647 mmHg 89%
06:00 +1°C° 0 mm 0 m/s 647 mmHg 89%
07:00 +3°C° 0 mm 0 m/s 648 mmHg 83%
08:00 +5°C° 0 mm 0 m/s 649 mmHg 77%
09:00 +7°C° 0 mm 0 m/s 650 mmHg 71%
10:00 +8°C° 0 mm 0 m/s 650 mmHg 67%
11:00 +9°C° 0 mm 0 m/s 650 mmHg 63%
12:00 +11°C° 0 mm 1 m/s 650 mmHg 58%
13:00 +11°C° 0 mm 1 m/s 650 mmHg 59%
14:00 +11°C° 0 mm 1 m/s 650 mmHg 59%
15:00 +11°C° 0 mm 1 m/s 650 mmHg 60%
16:00 +9°C° 0 mm 1 m/s 649 mmHg 68%
17:00 +6°C° 0 mm 0 m/s 649 mmHg 77%
18:00 +4°C° 0 mm 0 m/s 648 mmHg 85%
19:00 +4°C° 0 mm 0 m/s 648 mmHg 86%
20:00 +3°C° 0 mm 0 m/s 648 mmHg 86%
21:00 +3°C° 0 mm 0 m/s 649 mmHg 87%
22:00 +3°C° 0 mm 0 m/s 648 mmHg 87%
23:00 +2°C° 0 mm 0 m/s 648 mmHg 87%

Demain, 1 Décembre, Mardi

Heure Température Précipitation Vent Pression Humidité
00:00 +2°C° 0 mm 0 m/s 648 mmHg 87%
01:00 +2°C° 0 mm 0 m/s 648 mmHg 87%
02:00 +1°C° 0 mm 0 m/s 648 mmHg 87%
03:00 +1°C° 0 mm 0 m/s 647 mmHg 87%
04:00 +1°C° 0 mm 0 m/s 647 mmHg 86%
05:00 +2°C° 0 mm 1 m/s 647 mmHg 85%
06:00 +2°C° 0 mm 1 m/s 647 mmHg 84%
07:00 +4°C° 0 mm 1 m/s 647 mmHg 77%
08:00 +5°C° 0 mm 1 m/s 648 mmHg 70%
09:00 +7°C° 0 mm 1 m/s 649 mmHg 63%
10:00 +7°C° 0 mm 2 m/s 649 mmHg 55%
11:00 +8°C° 0 mm 2 m/s 649 mmHg 47%
12:00 +9°C° 0 mm 3 m/s 648 mmHg 39%
13:00 +7°C° 0 mm 4 m/s 648 mmHg 43%
14:00 +6°C° 0 mm 5 m/s 647 mmHg 47%
15:00 +5°C° 0 mm 6 m/s 646 mmHg 51%
16:00 +3°C° 0 mm 5 m/s 646 mmHg 58%
17:00 +2°C° 0 mm 5 m/s 645 mmHg 65%
18:00 +1°C° 0 mm 4 m/s 645 mmHg 72%
19:00 +1°C° 0 mm 5 m/s 645 mmHg 73%
20:00 +1°C° 0 mm 5 m/s 645 mmHg 74%
21:00 0°C° 0 mm 5 m/s 645 mmHg 74%
22:00 0°C° 0 mm 5 m/s 644 mmHg 76%
23:00 -1°C° 0 mm 6 m/s 644 mmHg 77%

Après-demain, 2 Décembre, Mercredi

Heure Température Précipitation Vent Pression Humidité
00:00 -1°C° 0 mm 6 m/s 643 mmHg 78%
01:00 -1°C° 0 mm 6 m/s 643 mmHg 80%
02:00 -1°C° 0 mm 6 m/s 643 mmHg 82%
03:00 -1°C° 0 mm 7 m/s 642 mmHg 83%
04:00 -1°C° 0 mm 7 m/s 642 mmHg 84%
05:00 -1°C° 0 mm 8 m/s 642 mmHg 85%
06:00 -1°C° 0 mm 9 m/s 642 mmHg 85%
07:00 -1°C° 0 mm 9 m/s 642 mmHg 79%
08:00 -2°C° 0 mm 10 m/s 642 mmHg 72%
09:00 -2°C° 0 mm 11 m/s 642 mmHg 66%
10:00 -2°C° 0 mm 10 m/s 642 mmHg 60%
11:00 -2°C° 0 mm 10 m/s 642 mmHg 55%
12:00 0°C° 0 mm 10 m/s 642 mmHg 50%
13:00 -2°C° 0 mm 10 m/s 642 mmHg 54%
14:00 -2°C° 0 mm 10 m/s 641 mmHg 57%
15:00 -2°C° 0 mm 10 m/s 641 mmHg 61%
16:00 -4°C° 0 mm 9 m/s 641 mmHg 70%
17:00 -5°C° 0 mm 8 m/s 641 mmHg 78%
18:00 -6°C° 0 mm 7 m/s 641 mmHg 87%
19:00 -6°C° 0 mm 7 m/s 641 mmHg 87%
20:00 -6°C° 0 mm 7 m/s 642 mmHg 88%
21:00 -6°C° 0 mm 7 m/s 642 mmHg 88%
22:00 -5°C° 0 mm 6 m/s 642 mmHg 88%
23:00 -5°C° 0 mm 6 m/s 642 mmHg 87%

3 Décembre, Jeudi

Heure Température Précipitation Vent Pression Humidité
00:00 -5°C° 0 mm 5 m/s 642 mmHg 86%
01:00 -4°C° 0 mm 4 m/s 642 mmHg 87%
02:00 -4°C° 0 mm 4 m/s 642 mmHg 87%
03:00 -5°C° 0 mm 3 m/s 641 mmHg 87%
04:00 -5°C° 0 mm 3 m/s 641 mmHg 89%
05:00 -4°C° 0 mm 2 m/s 640 mmHg 90%
06:00 -4°C° 0 mm 2 m/s 640 mmHg 91%
07:00 -4°C° 0 mm 2 m/s 640 mmHg 86%
08:00 -3°C° 0 mm 2 m/s 640 mmHg 80%
09:00 -2°C° 0 mm 2 m/s 640 mmHg 74%
10:00 +1°C° 0 mm 2 m/s 640 mmHg 64%
11:00 +3°C° 0 mm 2 m/s 640 mmHg 54%
12:00 +3°C° 0 mm 3 m/s 640 mmHg 43%
13:00 +4°C° 0 mm 3 m/s 640 mmHg 43%
14:00 +4°C° 0 mm 3 m/s 639 mmHg 42%
15:00 +4°C° 0 mm 3 m/s 639 mmHg 41%
16:00 +2°C° 0 mm 3 m/s 638 mmHg 48%
17:00 +1°C° 0 mm 2 m/s 637 mmHg 55%
18:00 0°C° 0 mm 1 m/s 636 mmHg 61%
19:00 -1°C° 0 mm 2 m/s 636 mmHg 59%
20:00 -1°C° 0 mm 3 m/s 636 mmHg 56%
21:00 -2°C° 0 mm 4 m/s 636 mmHg 53%
22:00 -2°C° 0 mm 4 m/s 636 mmHg 57%
23:00 -2°C° 0 mm 5 m/s 635 mmHg 60%

4 Décembre, Vendredi

Heure Température Précipitation Vent Pression Humidité
00:00 -3°C° 0 mm 6 m/s 635 mmHg 63%
01:00 -2°C° 0 mm 5 m/s 635 mmHg 70%
02:00 -2°C° 0 mm 5 m/s 634 mmHg 77%
03:00 -4°C° 0 mm 5 m/s 633 mmHg 84%
04:00 -4°C° 0 mm 5 m/s 633 mmHg 84%
05:00 -4°C° 0 mm 6 m/s 633 mmHg 84%
06:00 -4°C° 0 mm 6 m/s 633 mmHg 84%
07:00 -3°C° 0 mm 7 m/s 633 mmHg 85%
08:00 -4°C° 0 mm 9 m/s 633 mmHg 86%
09:00 -3°C° 0 mm 10 m/s 633 mmHg 87%
10:00 -3°C° 0.2 mm 10 m/s 633 mmHg 78%
11:00 -2°C° 0.2 mm 10 m/s 633 mmHg 70%
12:00 -2°C° 0.2 mm 11 m/s 632 mmHg 61%
13:00 -2°C° 0.2 mm 10 m/s 632 mmHg 62%
14:00 -1°C° 0.2 mm 9 m/s 632 mmHg 63%
15:00 -2°C° 0.2 mm 8 m/s 631 mmHg 63%
16:00 -3°C° 0.1 mm 7 m/s 631 mmHg 70%
17:00 -4°C° 0.1 mm 6 m/s 631 mmHg 78%
18:00 -4°C° 0.1 mm 4 m/s 631 mmHg 85%
19:00 -6°C° 0 mm 5 m/s 631 mmHg 83%
20:00 -6°C° 0 mm 5 m/s 631 mmHg 81%
21:00 -7°C° 0 mm 5 m/s 631 mmHg 79%
22:00 -7°C° 0 mm 5 m/s 631 mmHg 80%
23:00 -8°C° 0 mm 6 m/s 631 mmHg 81%

5 Décembre, Samedi

Heure Température Précipitation Vent Pression Humidité
00:00 -8°C° 0 mm 6 m/s 631 mmHg 81%
01:00 -8°C° 0 mm 6 m/s 631 mmHg 82%
02:00 -8°C° 0 mm 7 m/s 632 mmHg 82%
03:00 -8°C° 0 mm 8 m/s 632 mmHg 82%
04:00 -8°C° 0 mm 8 m/s 632 mmHg 82%
05:00 -8°C° 0 mm 8 m/s 632 mmHg 82%
06:00 -8°C° 0 mm 7 m/s 633 mmHg 83%
07:00 -8°C° 0 mm 8 m/s 633 mmHg 79%
08:00 -8°C° 0 mm 9 m/s 634 mmHg 75%
09:00 -8°C° 0 mm 9 m/s 635 mmHg 71%
10:00 -7°C° 0 mm 10 m/s 635 mmHg 65%
11:00 -5°C° 0 mm 10 m/s 636 mmHg 60%
12:00 -3°C° 0 mm 11 m/s 636 mmHg 55%
13:00 -3°C° 0 mm 11 m/s 637 mmHg 53%
14:00 -3°C° 0 mm 11 m/s 637 mmHg 51%
15:00 -3°C° 0 mm 12 m/s 637 mmHg 49%
16:00 -4°C° 0 mm 10 m/s 637 mmHg 57%
17:00 -6°C° 0 mm 9 m/s 637 mmHg 65%
18:00 -7°C° 0 mm 7 m/s 637 mmHg 73%
19:00 -7°C° 0 mm 7 m/s 638 mmHg 75%
20:00 -8°C° 0 mm 7 m/s 638 mmHg 77%
21:00 -8°C° 0 mm 6 m/s 638 mmHg 79%
22:00 -8°C° 0 mm 6 m/s 638 mmHg 80%
23:00 -7°C° 0 mm 7 m/s 638 mmHg 81%
Voir plus

Nous avons besoin de votre consentement

Meteoprog et ses fournisseurs de services peuvent stocker et accéder à des données personnelles telles que des cookies, des identifiants d'appareils ou d'autres technologies similaires sur votre appareil et traiter ces données pour personnaliser le contenu et les publicités, ainsi que pour fournir des fonctionnalités de médias sociaux et analyser le trafic.

  • Stocker et/ou accéder à des informations sur votre appareil

    Des cookies, des identifiants d'appareils ou d'autres informations peuvent être stockés ou accessibles sur votre appareil aux fins indiquées ci-dessus.

  • Annonces et contenus personnalisés, mesure des annonces et des contenus, connaissance de l'audience et développement de produits

    Les annonces et le contenu peuvent être personnalisés en fonction d'un profil. D'autres données peuvent être ajoutées pour mieux personnaliser les annonces et le contenu. Les performances des publicités et du contenu peuvent être mesurées. Il est possible d'obtenir des informations sur le public qui a vu les publicités et le contenu. Ces données peuvent être utilisées pour développer ou améliorer l'expérience de l'utilisateur, les systèmes et les logiciels.

En cliquant sur "J'accepte", vous autorisez l'utilisation de cookies, des identifiants d'appareils, des balises web ou d'autres technologies similaires. Vos paramètres peuvent être modifiés dans le navigateur de votre appareil.

Dans certains cas, des intérêts légitimes peuvent être invoqués plutôt qu'un consentement. Vous pouvez en savoir plus à ce sujet dans notre Politique de confidentialité et de cookies.